LER901 SVMI-SVMG

Flight info

Callsign LER901
Flight time 0h 33m
Altitude 23000
Route OSMAR2 OSMAR DCT DALSI W19 CHALO DCT VAREX
Aircraft MD83/M-SDFGIRWY/S

Departure

Time 2026-05-09 12:47
Airport Maiquetía Simón Bolívar International Airport (SVMI)

Arrival

Time 2026-05-09 13:20
Airport Del Caribe Santiago Mariño International Airport (SVMG)
Time Latitude Longitude Altitude Speed Heading
2026-05-09 11:47 10.59841 -66.99929 221 ft 0 kts 178°
2026-05-09 12:38 10.59855 -66.99929 220 ft 4 kts 174°
2026-05-09 12:39 10.59881 -66.99934 220 ft 4 kts 161°
2026-05-09 12:39 10.59903 -66.99946 220 ft 4 kts 134°
2026-05-09 12:39 10.59913 -66.99965 221 ft 3 kts 90°
2026-05-09 12:39 10.59913 -66.99967 221 ft 0 kts 88°
2026-05-09 12:42 10.59913 -66.99963 221 ft 1 kts 88°
2026-05-09 12:43 10.59914 -66.99947 220 ft 3 kts 83°
2026-05-09 12:43 10.59926 -66.99926 220 ft 4 kts 42°
2026-05-09 12:43 10.59954 -66.99914 220 ft 5 kts 11°
2026-05-09 12:43 10.59994 -66.99913 219 ft 7 kts 359°
2026-05-09 12:44 10.60045 -66.99915 219 ft 8 kts 358°
2026-05-09 12:44 10.60101 -66.99915 221 ft 8 kts
2026-05-09 12:44 10.60134 -66.99871 217 ft 10 kts 80°
2026-05-09 12:44 10.60137 -66.99790 214 ft 13 kts 88°
2026-05-09 12:45 10.60138 -66.99694 220 ft 13 kts 107°
2026-05-09 12:45 10.60077 -66.99664 219 ft 8 kts 172°
2026-05-09 12:45 10.60039 -66.99662 217 ft 6 kts 181°
2026-05-09 12:45 10.59980 -66.99661 219 ft 10 kts 179°
2026-05-09 12:46 10.59914 -66.99655 219 ft 8 kts 147°
2026-05-09 12:46 10.59914 -66.99595 215 ft 16 kts 77°
2026-05-09 12:46 10.59989 -66.99287 208 ft 75 kts 76°
2026-05-09 12:46 10.60173 -66.98544 177 ft 139 kts 76°
2026-05-09 12:47 10.60433 -66.97429 362 ft 172 kts 77°
2026-05-09 12:47 10.60695 -66.96278 1239 ft 164 kts 76°
2026-05-09 12:47 10.61052 -66.95145 1785 ft 174 kts 70°
2026-05-09 12:47 10.61445 -66.93985 2323 ft 178 kts 71°
2026-05-09 12:48 10.61846 -66.92768 2824 ft 190 kts 71°
2026-05-09 12:48 10.62295 -66.91405 3104 ft 214 kts 72°
2026-05-09 12:48 10.62748 -66.89930 3803 ft 218 kts 76°
2026-05-09 12:48 10.63080 -66.88482 4867 ft 201 kts 77°
2026-05-09 12:49 10.63460 -66.87100 5472 ft 216 kts 72°
2026-05-09 12:49 10.63965 -66.85529 5638 ft 244 kts 71°
2026-05-09 12:49 10.64520 -66.83850 5982 ft 264 kts 71°
2026-05-09 12:49 10.65101 -66.82055 6219 ft 271 kts 72°
2026-05-09 12:50 10.65686 -66.80231 6432 ft 273 kts 72°
2026-05-09 12:50 10.66274 -66.78395 6689 ft 273 kts 72°
2026-05-09 12:50 10.66857 -66.76548 6934 ft 275 kts 72°
2026-05-09 12:50 10.67434 -66.74697 7188 ft 275 kts 72°
2026-05-09 12:51 10.68007 -66.72841 7400 ft 276 kts 72°
2026-05-09 12:51 10.68590 -66.70944 7489 ft 293 kts 72°
2026-05-09 12:51 10.69226 -66.68862 7729 ft 320 kts 72°
2026-05-09 12:51 10.69896 -66.66667 8336 ft 326 kts 72°
2026-05-09 12:52 10.70573 -66.64450 8942 ft 330 kts 72°
2026-05-09 12:52 10.71259 -66.62211 9590 ft 333 kts 72°
2026-05-09 12:52 10.71950 -66.59951 10202 ft 337 kts 72°
2026-05-09 12:52 10.72642 -66.57691 10796 ft 339 kts 72°
2026-05-09 12:53 10.73345 -66.55388 11374 ft 342 kts 73°
2026-05-09 12:53 10.74013 -66.53045 11920 ft 346 kts 74°
2026-05-09 12:53 10.74676 -66.50681 12506 ft 349 kts 74°
2026-05-09 12:53 10.75347 -66.48295 13071 ft 351 kts 74°
2026-05-09 12:54 10.76017 -66.45903 13610 ft 354 kts 74°
2026-05-09 12:54 10.76695 -66.43481 14122 ft 356 kts 74°
2026-05-09 12:54 10.77376 -66.41048 14642 ft 359 kts 74°
2026-05-09 12:54 10.78055 -66.38626 15165 ft 361 kts 74°
2026-05-09 12:55 10.78752 -66.36158 15615 ft 364 kts 74°
2026-05-09 12:55 10.79452 -66.33669 16078 ft 367 kts 74°
2026-05-09 12:55 10.80153 -66.31170 16601 ft 368 kts 74°
2026-05-09 12:55 10.80863 -66.28649 17039 ft 372 kts 74°
2026-05-09 12:56 10.81579 -66.26108 17527 ft 375 kts 74°
2026-05-09 12:56 10.82299 -66.23556 18045 ft 376 kts 74°
2026-05-09 12:56 10.83025 -66.20978 18506 ft 380 kts 74°
2026-05-09 12:56 10.83750 -66.18397 19053 ft 379 kts 74°
2026-05-09 12:57 10.84477 -66.15804 19481 ft 383 kts 74°
2026-05-09 12:57 10.85215 -66.13183 19960 ft 384 kts 74°
2026-05-09 12:57 10.85941 -66.10600 20432 ft 386 kts 73°
2026-05-09 12:57 10.86683 -66.07964 20916 ft 388 kts 73°
2026-05-09 12:58 10.87428 -66.05319 21343 ft 391 kts 73°
2026-05-09 12:58 10.88178 -66.02658 21828 ft 392 kts 73°
2026-05-09 12:58 10.88932 -65.99983 22269 ft 393 kts 73°
2026-05-09 12:58 10.89669 -65.97290 22616 ft 398 kts 77°
2026-05-09 12:59 10.89945 -65.94482 23054 ft 401 kts 87°
2026-05-09 12:59 10.89944 -65.91627 23396 ft 406 kts 89°
2026-05-09 12:59 10.89887 -65.88713 23595 ft 416 kts 89°
2026-05-09 12:59 10.89822 -65.85734 23691 ft 426 kts 89°
2026-05-09 13:00 10.89762 -65.82685 23784 ft 435 kts 89°
2026-05-09 13:00 10.89717 -65.79596 24111 ft 438 kts 89°
2026-05-09 13:00 10.89687 -65.76534 24508 ft 439 kts 88°
2026-05-09 13:00 10.89671 -65.73411 24753 ft 443 kts 88°
2026-05-09 13:01 10.89663 -65.70247 24870 ft 445 kts 88°
2026-05-09 13:01 10.89655 -65.67137 24919 ft 431 kts 88°
2026-05-09 13:01 10.89645 -65.64158 24943 ft 412 kts 88°
2026-05-09 13:01 10.89636 -65.61267 24961 ft 406 kts 88°
2026-05-09 13:02 10.89629 -65.58392 24971 ft 408 kts 88°
2026-05-09 13:02 10.89621 -65.55485 24976 ft 412 kts 88°
2026-05-09 13:02 10.89611 -65.52561 24975 ft 415 kts 88°
2026-05-09 13:02 10.89597 -65.49600 24976 ft 424 kts 88°
2026-05-09 13:03 10.89581 -65.46597 24977 ft 434 kts 88°
2026-05-09 13:03 10.89561 -65.43513 24974 ft 438 kts 88°
2026-05-09 13:03 10.89540 -65.40397 24973 ft 440 kts 88°
2026-05-09 13:03 10.89523 -65.37267 24972 ft 443 kts 88°
2026-05-09 13:04 10.89506 -65.34119 24973 ft 447 kts 88°
2026-05-09 13:04 10.89492 -65.30943 24823 ft 453 kts 88°
2026-05-09 13:04 10.89510 -65.27718 24567 ft 459 kts 87°
2026-05-09 13:04 10.89564 -65.24448 24453 ft 462 kts 87°
2026-05-09 13:05 10.89632 -65.21198 24507 ft 455 kts 87°
2026-05-09 13:05 10.89698 -65.17977 24257 ft 457 kts 87°
2026-05-09 13:05 10.89758 -65.14798 24389 ft 454 kts 87°
2026-05-09 13:05 10.89814 -65.11611 24357 ft 455 kts 87°
2026-05-09 13:06 10.89866 -65.08395 24406 ft 455 kts 87°
2026-05-09 13:06 10.89916 -65.05164 24204 ft 459 kts 87°
2026-05-09 13:06 10.89967 -65.01897 23425 ft 460 kts 88°
2026-05-09 13:06 10.90015 -64.98690 22537 ft 446 kts 88°
2026-05-09 13:07 10.90065 -64.95566 21671 ft 438 kts 88°
2026-05-09 13:07 10.90114 -64.92480 20786 ft 432 kts 88°
2026-05-09 13:07 10.90163 -64.89451 19920 ft 425 kts 88°
2026-05-09 13:07 10.90211 -64.86459 19047 ft 420 kts 89°
2026-05-09 13:08 10.90251 -64.83503 18163 ft 415 kts 89°
2026-05-09 13:08 10.90288 -64.80578 17281 ft 410 kts 89°
2026-05-09 13:08 10.90326 -64.77699 16494 ft 404 kts 89°
2026-05-09 13:08 10.90366 -64.74856 15743 ft 400 kts 89°
2026-05-09 13:09 10.90406 -64.72037 14991 ft 397 kts 89°
2026-05-09 13:09 10.90447 -64.69278 14249 ft 393 kts 89°
2026-05-09 13:09 10.90489 -64.66523 13481 ft 384 kts 89°
2026-05-09 13:09 10.90524 -64.63791 12351 ft 386 kts 90°
2026-05-09 13:10 10.90471 -64.61096 11465 ft 379 kts 92°
2026-05-09 13:10 10.90342 -64.58456 10903 ft 365 kts 93°
2026-05-09 13:10 10.90197 -64.55964 10701 ft 341 kts 93°
2026-05-09 13:10 10.90066 -64.53633 10512 ft 320 kts 92°
2026-05-09 13:11 10.89991 -64.52164 10376 ft 309 kts 92°
2026-05-09 13:11 10.89860 -64.49335 10037 ft 291 kts 92°
2026-05-09 13:11 10.89802 -64.47987 9769 ft 287 kts 92°
2026-05-09 13:11 10.89638 -64.45968 9284 ft 284 kts 96°
2026-05-09 13:12 10.89390 -64.43986 8776 ft 282 kts 97°
2026-05-09 13:12 10.89117 -64.42041 8489 ft 273 kts 97°
2026-05-09 13:12 10.88845 -64.40155 8216 ft 265 kts 97°
2026-05-09 13:12 10.88573 -64.38321 7897 ft 260 kts 97°
2026-05-09 13:13 10.88302 -64.36510 7514 ft 257 kts 97°
2026-05-09 13:13 10.88033 -64.34721 7074 ft 257 kts 98°
2026-05-09 13:13 10.87764 -64.32928 6707 ft 254 kts 97°
2026-05-09 13:13 10.87498 -64.31153 6346 ft 252 kts 97°
2026-05-09 13:14 10.87235 -64.29397 6039 ft 251 kts 98°
2026-05-09 13:14 10.86944 -64.27653 5784 ft 250 kts 101°
2026-05-09 13:16 10.87317 -64.16085 3796 ft 213 kts 78°
2026-05-09 13:16 10.87616 -64.14636 3482 ft 206 kts 78°
2026-05-09 13:16 10.87897 -64.13238 3185 ft 200 kts 78°
2026-05-09 13:16 10.88176 -64.11872 2917 ft 195 kts 78°
2026-05-09 13:17 10.88447 -64.10532 2686 ft 187 kts 78°
2026-05-09 13:17 10.88701 -64.09276 2423 ft 181 kts 78°
2026-05-09 13:17 10.88954 -64.08036 2137 ft 178 kts 78°
2026-05-09 13:17 10.89203 -64.06807 1863 ft 175 kts 79°
2026-05-09 13:18 10.89444 -64.05593 1621 ft 175 kts 78°
2026-05-09 13:18 10.89692 -64.04395 1343 ft 171 kts 78°
2026-05-09 13:18 10.89920 -64.03250 1082 ft 160 kts 79°
2026-05-09 13:18 10.90137 -64.02161 814 ft 153 kts 79°
2026-05-09 13:19 10.90348 -64.01148 677 ft 141 kts 79°
2026-05-09 13:19 10.90543 -64.00177 529 ft 140 kts 79°
2026-05-09 13:19 10.90741 -63.99209 375 ft 140 kts 79°
2026-05-09 13:19 10.90939 -63.98234 127 ft 141 kts 78°
2026-05-09 13:20 10.91126 -63.97334 70 ft 108 kts 78°
2026-05-09 13:20 10.91255 -63.96703 60 ft 70 kts 78°
2026-05-09 13:20 10.91308 -63.96481 56 ft 18 kts 50°
2026-05-09 13:20 10.91411 -63.96476 58 ft 14 kts 348°
2026-05-09 13:21 10.91499 -63.96497 53 ft 13 kts 347°
2026-05-09 13:21 10.91563 -63.96528 59 ft 10 kts 305°
2026-05-09 13:21 10.91566 -63.96595 53 ft 10 kts 258°
2026-05-09 13:21 10.91551 -63.96665 55 ft 11 kts 259°
2026-05-09 13:22 10.91537 -63.96741 58 ft 11 kts 259°
2026-05-09 13:22 10.91520 -63.96820 56 ft 12 kts 257°
2026-05-09 13:22 10.91502 -63.96901 60 ft 9 kts 259°
2026-05-09 13:23 10.91560 -63.96938 59 ft 0 kts 346°